CW4957 Weather Reports


Display with metric or nautical units.
time (UTC)temp
F
wind
direction
speed
MPH
gust
MPH
rain 1hr
in
rain 24hr
in
rain mn
in
humidity
%
barometer
mb
20260503032253 46 360 0.0 1.0 0.00 0.26 0.26 55 1010.5
20260503031809 47 360 0.0 1.0 0.00 0.26 0.26 54 1010.5
20260503031308 47 360 0.0 0.0 0.00 0.26 0.26 54 1010.5
20260503030806 47 360 0.0 0.0 0.00 0.26 0.26 53 1010.7
20260503030258 47 360 0.0 0.0 0.00 0.26 0.26 52 1010.7
20260503025811 47 360 0.0 0.0 0.00 0.26 0.26 51 1010.7
20260503025308 47 360 0.0 0.0 0.00 0.26 0.26 51 1010.7
20260503024807 48 360 0.0 1.0 0.00 0.26 0.26 50 1010.7
20260503024303 48 360 0.0 1.0 0.00 0.26 0.26 50 1010.7
20260503023819 48 360 0.0 1.0 0.00 0.26 0.26 49 1010.7
20260503023259 48 360 0.0 1.0 0.00 0.26 0.26 49 1010.7
20260503022757 48 360 0.0 1.0 0.00 0.26 0.26 48 1010.7
20260503022304 48 360 0.0 1.0 0.00 0.26 0.26 47 1010.7
20260503021808 48 360 0.0 1.0 0.00 0.26 0.26 48 1010.7
20260503021305 48 360 0.0 2.0 0.00 0.26 0.26 47 1010.7
20260503020757 48 360 0.0 3.0 0.00 0.26 0.26 46 1010.9
20260503020324 49 360 0.0 3.0 0.00 0.26 0.26 46 1010.9
20260503015801 49 360 0.0 2.0 0.00 0.26 0.26 45 1010.9
20260503015319 49 360 1.0 2.0 0.00 0.26 0.26 46 1010.8
20260503014754 49 355 0.0 2.0 0.00 0.26 0.26 46 1010.8
20260503014306 49 355 0.0 2.0 0.00 0.26 0.26 45 1010.8
20260503013808 49 355 0.0 2.0 0.00 0.26 0.26 45 1010.9
20260503013304 49 355 0.0 2.0 0.00 0.26 0.26 45 1010.9
20260503012759 49 355 0.0 2.0 0.00 0.26 0.26 45 1010.9
20260503012315 49 355 1.0 2.0 0.00 0.26 0.26 45 1010.9
20260503011756 49 355 0.0 2.0 0.00 0.26 0.26 47 1010.9
20260503011300 49 355 0.0 2.0 0.00 0.26 0.26 46 1010.9
20260503010752 50 355 0.0 1.0 0.00 0.26 0.26 48 1010.5
20260503010302 50 355 0.0 1.0 0.00 0.26 0.26 46 1010.5
20260503005754 50 5 0.0 0.0 0.00 0.26 0.26 46 1010.3
20260503005252 50 5 0.0 1.0 0.00 0.26 0.26 45 1010.3
20260503004833 50 5 0.0 2.0 0.00 0.26 0.26 44 1010.3
20260503004306 50 5 0.0 1.0 0.00 0.26 0.26 45 1010.3
20260503003829 51 5 0.0 3.0 0.00 0.26 0.26 44 1010.0
20260503003251 51 5 2.0 3.0 0.00 0.26 0.26 42 1010.0
20260503002752 51 289 0.0 1.0 0.00 0.26 0.26 45 1010.0
20260503002309 52 289 0.0 2.0 0.00 0.26 0.26 44 1010.0
20260503001823 52 288 0.0 3.0 0.00 0.26 0.26 43 1010.0
20260503001301 52 205 0.0 3.0 0.00 0.26 0.26 43 1010.0
20260503000802 52 250 0.0 2.0 0.00 0.26 0.26 43 1009.9
20260503000305 52 248 0.0 1.0 0.00 0.26 0.26 42 1009.9
20260502235800 53 248 0.0 2.0 0.00 0.26 0.26 42 1009.9
20260502235254 53 248 0.0 3.0 0.00 0.26 0.26 42 1009.7
20260502234807 53 248 0.0 4.0 0.00 0.26 0.26 41 1009.7
20260502234321 53 16 1.0 5.0 0.00 0.26 0.26 40 1009.7
20260502233814 54 360 2.0 5.0 0.00 0.26 0.26 41 1009.4
20260502233253 54 360 0.0 2.0 0.00 0.26 0.26 43 1009.4
20260502232753 54 360 0.0 3.0 0.00 0.26 0.26 41 1009.3
20260502232310 54 360 0.0 3.0 0.00 0.26 0.26 40 1009.3
20260502231809 55 360 2.0 3.0 0.00 0.26 0.26 41 1009.3
20260502231323 55 360 1.0 3.0 0.00 0.26 0.26 40 1009.3
20260502230754 55 360 0.0 6.0 0.00 0.26 0.26 40 1009.4
20260502230253 55 360 2.0 6.0 0.00 0.26 0.26 38 1009.4
20260502225759 56 360 2.0 4.0 0.00 0.26 0.26 39 1009.4
20260502225300 56 360 1.0 2.0 0.00 0.26 0.26 42 1009.1
20260502224754 56 360 0.0 3.0 0.00 0.26 0.26 42 1009.1
20260502224253 56 360 0.0 3.0 0.00 0.26 0.26 42 1008.8
20260502223752 56 360 1.0 2.0 0.00 0.26 0.26 42 1008.8
20260502223252 56 360 1.0 4.0 0.00 0.26 0.26 42 1008.8
20260502222753 56 360 0.0 4.0 0.00 0.26 0.26 41 1008.8
20260502222315 56 360 1.0 2.0 0.00 0.26 0.26 43 1008.8
20260502221758 56 360 0.0 3.0 0.00 0.26 0.26 45 1008.8
20260502221308 56 360 1.0 5.0 0.00 0.26 0.26 42 1008.8
20260502220803 56 360 2.0 5.0 0.00 0.26 0.26 44 1008.5
20260502220255 56 360 0.0 2.0 0.00 0.26 0.26 46 1008.5
20260502215752 56 360 0.0 3.0 0.00 0.26 0.26 46 1008.5
20260502215309 56 360 0.0 3.0 0.00 0.26 0.26 47 1008.5
20260502214805 56 360 1.0 4.0 0.00 0.26 0.26 46 1008.5
20260502214302 56 360 0.0 4.0 0.00 0.26 0.26 46 1008.5
20260502213759 56 360 0.0 2.0 0.00 0.26 0.26 46 1008.4
20260502213256 56 360 0.0 2.0 0.00 0.26 0.26 47 1008.4
20260502212816 57 360 0.0 4.0 0.00 0.26 0.26 46 1008.4
20260502212312 57 360 1.0 4.0 0.00 0.26 0.26 47 1008.4
20260502211807 57 360 1.0 3.0 0.00 0.26 0.26 48 1008.4
20260502211305 57 360 1.0 3.0 0.00 0.26 0.26 49 1008.4
20260502210759 57 360 1.0 3.0 0.00 0.26 0.26 49 1008.4
20260502210253 57 360 1.0 3.0 0.00 0.26 0.26 51 1008.4
20260502205802 57 360 0.0 3.0 0.00 0.26 0.26 50 1008.4
20260502205258 57 360 1.0 2.0 0.00 0.26 0.26 50 1008.4
20260502204814 57 360 0.0 2.0 0.00 0.26 0.26 50 1008.4
20260502204331 57 360 1.0 6.0 0.00 0.26 0.26 51 1008.4
20260502203825 57 360 1.0 6.0 0.00 0.26 0.26 51 1008.5
20260502203319 57 360 0.0 7.0 0.00 0.26 0.26 52 1008.5
20260502202754 57 360 2.0 7.0 0.00 0.26 0.26 52 1008.6
20260502202253 57 360 1.0 2.0 0.00 0.26 0.26 56 1008.6
20260502201756 57 360 0.0 3.0 0.00 0.26 0.26 54 1008.6
20260502201316 57 360 0.0 5.0 0.00 0.26 0.26 56 1008.8
20260502200755 56 360 1.0 5.0 0.00 0.26 0.26 54 1008.8
20260502200301 56 360 3.0 5.0 0.00 0.26 0.26 55 1008.8
20260502195800 56 360 1.0 3.0 0.00 0.26 0.26 59 1008.8
20260502195255 56 360 0.0 3.0 0.00 0.26 0.26 58 1008.9
20260502194758 56 360 1.0 5.0 0.00 0.26 0.26 58 1008.9
20260502194255 56 360 2.0 5.0 0.00 0.26 0.26 56 1008.9
20260502193753 56 360 3.0 5.0 0.00 0.26 0.26 57 1008.9
20260502193250 56 360 0.0 3.0 0.00 0.26 0.26 60 1008.9
20260502192755 56 360 0.0 4.0 0.00 0.26 0.26 61 1008.9
20260502192253 56 360 1.0 7.0 0.00 0.26 0.26 60 1008.9
20260502191752 56 360 5.0 7.0 0.00 0.26 0.26 58 1008.9
20260502191306 56 360 2.0 8.0 0.00 0.26 0.26 59 1008.9
20260502190806 55 360 2.0 8.0 0.00 0.26 0.26 60 1009.0
20260502190253 55 360 0.0 2.0 0.00 0.26 0.26 62 1009.0
20260502185751 55 360 1.0 7.0 0.00 0.26 0.26 62 1009.3
20260502185314 55 360 2.0 7.0 0.00 0.26 0.26 61 1009.3
20260502184808 55 360 2.0 7.0 0.00 0.26 0.26 61 1009.3
20260502184308 55 360 3.0 7.0 0.00 0.26 0.26 63 1009.3
20260502183750 55 360 0.0 1.0 0.00 0.26 0.26 67 1009.3
20260502183308 55 360 0.0 3.0 0.00 0.26 0.26 66 1009.3
20260502182805 55 360 1.0 3.0 0.00 0.26 0.26 66 1009.3
20260502182305 55 360 1.0 5.0 0.00 0.26 0.26 67 1009.4
20260502181802 55 360 2.0 5.0 0.00 0.26 0.26 67 1009.4
20260502181300 54 360 2.0 7.0 0.00 0.26 0.26 69 1009.4
20260502180753 54 360 1.0 4.0 0.00 0.26 0.26 70 1009.5
20260502180310 54 360 2.0 5.0 0.00 0.26 0.26 71 1009.5
20260502170258 52 360 0.0 3.0 0.00 0.26 0.26 92 1009.7
20260502164306 51 360 0.0 0.0 0.00 0.26 0.26 93 1009.8
20260502163802 50 360 0.0 0.0 0.00 0.26 0.26 93 1009.9
20260502163258 50 360 0.0 0.0 0.00 0.26 0.26 93 1009.9
20260502162832 50 171 0.0 0.0 0.00 0.26 0.26 93 1009.9
20260502162254 50 171 0.0 1.0 0.00 0.26 0.26 93 1010.0
20260502161753 50 171 0.0 2.0 0.00 0.26 0.26 93 1010.0
20260502161253 50 171 1.0 2.0 0.00 0.26 0.26 93 1010.1
20260502160810 50 171 1.0 3.0 0.00 0.26 0.26 93 1010.1
20260502160318 50 171 0.0 3.0 0.00 0.26 0.26 93 1010.1
20260502151758 50 284 1.0 2.0 0.05 0.26 0.26 93 1010.3
20260502151300 50 286 0.0 1.0 0.05 0.26 0.26 93 1010.3
20260502150801 50 286 0.0 1.0 0.05 0.26 0.26 93 1010.4
20260502150314 50 286 0.0 0.0 0.05 0.26 0.26 93 1010.4
20260502130259 48 288 1.0 2.0 0.00 0.21 0.21 95 1010.8
20260502123300 47 288 1.0 2.0 0.00 0.21 0.21 94 1010.9
20260502122803 47 289 0.0 1.0 0.00 0.21 0.21 94 1010.9
20260502122253 47 289 0.0 2.0 0.00 0.21 0.21 94 1011.0
20260502121813 47 294 0.0 2.0 0.00 0.21 0.21 94 1011.0
20260502121306 47 302 1.0 2.0 0.00 0.21 0.21 94 1011.0
20260502120827 47 302 0.0 1.0 0.00 0.21 0.21 94 1010.9
20260502120257 46 302 0.0 1.0 0.00 0.21 0.21 94 1010.9
20260502115751 46 302 0.0 1.0 0.00 0.21 0.21 94 1011.0
20260502115249 46 302 0.0 1.0 0.00 0.21 0.21 94 1011.0
20260502114807 46 132 0.0 1.0 0.00 0.21 0.21 94 1011.0
20260502113757 46 132 0.0 0.0 0.02 0.21 0.21 94 1011.0
20260502113309 46 132 0.0 0.0 0.03 0.21 0.21 93 1011.0
20260502112810 46 132 0.0 0.0 0.03 0.21 0.21 93 1011.0
20260502112251 46 132 0.0 0.0 0.03 0.21 0.21 93 1010.8
20260502111755 46 132 0.0 0.0 0.03 0.21 0.21 93 1010.8
20260502111255 46 132 0.0 0.0 0.03 0.21 0.21 93 1010.5
20260502110758 46 132 0.0 0.0 0.03 0.21 0.21 93 1010.5
20260502110252 46 132 0.0 0.0 0.03 0.21 0.21 93 1010.5
20260502105752 46 132 0.0 0.0 0.03 0.21 0.21 93 1010.6
20260502105251 46 132 0.0 0.0 0.03 0.21 0.21 93 1010.6
20260502104749 46 132 0.0 0.0 0.02 0.20 0.20 93 1010.6
20260502104311 46 132 0.0 0.0 0.02 0.20 0.20 93 1010.6
20260502103806 46 132 0.0 1.0 0.01 0.19 0.19 93 1010.6
20260502103306 46 132 0.0 1.0 0.01 0.18 0.18 93 1010.6
20260502102830 46 132 0.0 0.0 0.01 0.18 0.18 93 1010.6
20260502102309 46 132 0.0 0.0 0.01 0.18 0.18 93 1010.1
20260502101807 46 132 0.0 0.0 0.01 0.18 0.18 93 1010.1
20260502101301 46 132 0.0 0.0 0.01 0.18 0.18 93 1010.1
20260502100758 46 132 0.0 0.0 0.01 0.18 0.18 93 1010.2
20260502100251 46 132 0.0 0.0 0.02 0.18 0.18 93 1010.2
20260502091309 46 105 2.0 3.0 0.07 0.17 0.17 92 1010.4
20260502090752 46 42 0.0 0.0 0.07 0.17 0.17 92 1010.6
20260502090247 46 42 0.0 0.0 0.06 0.16 0.16 92 1010.6
20260502071251 47 42 0.0 0.0 0.04 0.06 0.06 88 1010.7
20260502070809 47 42 0.0 0.0 0.02 0.04 0.04 88 1010.7
20260502070318 47 42 0.0 0.0 0.01 0.03 0.03 88 1010.7
20260502065757 47 42 0.0 0.0 0.00 0.02 0.02 87 1010.7
20260502065301 47 42 0.0 0.0 0.00 0.02 0.02 87 1010.5
20260502064818 47 42 0.0 0.0 0.01 0.02 0.02 87 1010.5
20260502064253 47 42 0.0 0.0 0.01 0.02 0.02 87 1010.5
20260502063752 47 42 0.0 0.0 0.01 0.02 0.02 87 1010.5
20260502063307 47 42 0.0 0.0 0.01 0.02 0.02 86 1010.5
20260502062801 47 42 0.0 0.0 0.01 0.02 0.02 85 1010.5
20260502062258 47 42 0.0 0.0 0.01 0.02 0.02 85 1010.8
20260502061815 47 42 0.0 0.0 0.02 0.02 0.02 84 1010.8
20260502061257 47 42 0.0 0.0 0.02 0.02 0.02 84 1010.8
20260502060759 47 42 0.0 1.0 0.02 0.02 0.02 84 1010.5
20260502060254 48 42 1.0 1.0 0.02 0.02 0.02 83 1010.5
20260502055753 48 42 0.0 0.0 0.02 0.02 0.02 82 1010.8
20260502055309 48 42 0.0 0.0 0.01 0.01 0.01 82 1010.8
20260502054807 48 42 0.0 0.0 0.01 0.01 0.01 81 1010.8
20260502054308 48 42 0.0 0.0 0.01 0.01 0.01 80 1010.8
20260502053806 48 42 0.0 0.0 0.01 0.01 0.01 80 1011.0
20260502053305 48 42 0.0 0.0 0.01 0.01 0.01 79 1011.0
20260502052804 49 42 0.0 0.0 0.01 0.01 0.01 78 1011.0
20260502052306 49 42 0.0 0.0 0.01 0.01 0.01 78 1011.0
20260502051806 49 42 0.0 0.0 0.00 0.00 0.00 76 1011.0
20260502051308 49 42 0.0 0.0 0.00 0.00 0.00 74 1011.0
20260502050809 49 42 0.0 0.0 0.00 0.00 0.00 74 1010.8
20260502050301 49 42 0.0 0.0 0.00 0.00 0.00 73 1010.8
20260502045800 49 42 0.0 0.0 0.00 0.00 0.00 73 1010.8
20260502045316 50 42 0.0 0.0 0.00 0.00 0.00 73 1010.8
20260502044823 50 42 0.0 1.0 0.00 0.00 0.00 72 1010.8
20260502044330 50 42 0.0 2.0 0.00 0.00 0.00 71 1010.8
20260502043810 50 42 1.0 2.0 0.00 0.00 0.00 71 1010.7
20260502043331 50 42 0.0 0.0 0.00 0.00 0.00 69 1010.7
20260502042800 50 42 0.0 0.0 0.00 0.00 0.00 67 1010.7
20260502042258 50 42 0.0 0.0 0.00 0.00 0.00 67 1010.4
20260502041820 50 42 0.0 0.0 0.00 0.00 0.00 66 1010.4
20260502041316 50 42 0.0 0.0 0.00 0.00 0.00 65 1010.4
20260502040754 50 42 0.0 0.0 0.00 0.00 0.00 65 1010.4
20260502040309 50 42 0.0 0.0 0.00 0.00 0.00 65 1010.4
20260502035807 50 42 0.0 0.0 0.00 0.00 0.00 65 1010.4
20260502035306 50 42 0.0 0.0 0.00 0.00 0.00 65 1010.4
20260502034802 50 42 0.0 0.0 0.00 0.00 0.00 65 1010.4
20260502034317 50 42 0.0 0.0 0.00 0.00 0.00 65 1010.3
20260502033754 50 42 0.0 0.0 0.00 0.00 0.00 65 1010.3
20260502033308 50 42 0.0 0.0 0.00 0.00 0.00 64 1010.3
20260502032828 50 42 0.0 0.0 0.00 0.00 0.00 64 1010.3